Location: Prairie State College
(41.5244°N, 87.6382°W)
Time: 15:12:26
(UTC-06:00)

Cosmos 1140 Rocket - Visible Passes

Search period start: 11 February 2016 00:00
Search period end: 21 February 2016 00:00
Orbit: 746 x 767 km, 74.1° (Epoch: 11 February)

Date Brightness Start Highest point End Pass type
(mag) Time Alt. Az. Time Alt. Az. Time Alt. Az.
11 Feb 4.0 04:12:51 57° ENE 04:12:54 57° ENE 04:17:59 10° SSE visible
11 Feb 4.9 05:52:59 16° W 05:54:10 17° W 05:57:23 10° SW visible
11 Feb 4.1 18:42:56 10° SW 18:47:59 56° WNW 18:53:03 10° NNE visible
12 Feb 5.6 03:34:38 22° ESE 03:34:38 22° ESE 03:36:52 10° SE visible
12 Feb 4.3 05:14:46 30° WSW 05:14:46 30° WSW 05:18:30 10° SSW visible
12 Feb 3.4 18:02:22 10° SSW 18:07:29 79° ESE 18:12:38 10° NNE visible
12 Feb 6.2 19:47:13 10° W 19:49:57 14° NW 19:52:41 10° NNW visible
13 Feb 4.9 04:36:38 25° S 04:36:38 25° S 04:38:46 10° S visible
13 Feb 5.7 19:04:56 10° WSW 19:09:05 24° WNW 19:13:16 10° N visible
14 Feb 4.7 18:23:32 10° SW 18:28:24 42° WNW 18:33:17 10° N visible
15 Feb 3.7 17:42:43 10° SSW 17:47:50 78° WNW 17:53:00 10° NNE visible
15 Feb 6.4 19:29:15 10° WNW 19:30:33 11° NW 19:31:51 10° NW visible
16 Feb 6.1 18:46:01 10° WSW 18:49:36 19° WNW 18:53:13 10° NNW visible
17 Feb 5.3 18:04:15 10° SW 18:08:50 32° WNW 18:13:26 10° N visible
19 Feb 6.2 18:27:21 10° W 18:30:10 15° NW 18:32:58 10° NNW visible
